Regional Weather Roundup
Issued by NWS Upton, NY

Current Version | Previous Version | Graphics & Text | Print | Product List | Glossary Off
Versions: 1 2 3 4 5 6 7 8 9 10 11 12 13 14 15 16 17 18 19 20 21 22 23 24 25 26 27 28 29 30 31 32 33 34 35 36 37 38 39 40 41 42 43 44 45 46 47

000
ASUS41 KOKX 281105
RWROKX

REGIONAL WEATHER ROUNDUP
NATIONAL WEATHER SERVICE NEW YORK NY
600 AM EST FRI NOV 28 2014

NOTE: "FAIR" INDICATES FEW OR NO CLOUDS BELOW 12,000 FEET WITH NO
SIGNIFICANT WEATHER AND/OR OBSTRUCTIONS TO VISIBILITY.

NYZ071-072-176-178-NJZ106-104-281200-
NEW YORK CITY METRO AREA


CITY           SKY/WX    TMP DP  RH WIND       PRES   REMARKS
CENTRAL PARK   PTCLDY    31  21  66 VRB3      30.12R
LAGUARDIA APRT PTCLDY    32  23  69 NW14      30.10R WCI  22
KENNEDY INTL   PTCLDY    32  21  64 NW13      30.11R WCI  22
NEWARK/LIBERTY PTCLDY    29  22  75 W3        30.12R
BRNX BOT. GARD   N/A    N/A N/A N/A W3        30.10S
TETERBORO      CLEAR     29  22  75 NW5       30.11R WCI  24
$$

NYZ177-179-078>081-281200-
LONG ISLAND NEW YORK

CITY           SKY/WX    TMP DP  RH WIND       PRES   REMARKS
FARMINGDALE    CLEAR     32  21  64 NW6       30.09R WCI  26
ISLIP          PTCLDY    31  23  72 NW8       30.06R WCI  23
SHIRLEY        CLEAR     30  25  81 NW7       30.08R WCI  23
WESTHAMPTON    CLEAR     32  24  72 NW12      30.07R WCI  23
MONTAUK POINT    N/A     35  26  69 NW13G23   30.04R WCI  26
$$

NYZ052-065-067-281200-
HUDSON VALLEY

CITY           SKY/WX    TMP DP  RH WIND       PRES   REMARKS
WHITE PLAINS   PTCLDY    29  22  75 NW14      30.07R WCI  18
NEWBURGH       PTCLDY    23  21  93 W12       30.09R WCI  12
MONTGOMERY     CLOUDY    22  19  89 CALM      30.09R
POUGHKEEPSIE   CLOUDY    22  18  85 CALM      30.10R
ALBANY         MOCLDY    25  20  81 W5        30.09R WCI  19
$$

NJZ001-105-106-008-010-013-015-019>022-104-281200-
NEW JERSEY

CITY           SKY/WX    TMP DP  RH WIND       PRES   REMARKS
NEWARK/LIBERTY PTCLDY    29  22  75 W3        30.12R
TETERBORO      CLEAR     29  22  75 NW5       30.11R WCI  24
CALDWELL       CLOUDY    26  21  81 CALM      30.12R
MORRISTOWN       N/A     28  25  86 CALM      30.10S
SOMERVILLE     MOCLDY    25  22  88 CALM      30.11R
SUSSEX         CLOUDY    23  21  92 CALM      30.11R
ANDOVER          N/A     26  24  92 CALM      30.11R
TRENTON        CLEAR     30  24  78 W7        30.13R WCI  23
MILLVILLE      CLEAR     32  23  69 NW9       30.17R WCI  24
ATLANTIC CITY  CLEAR     30  28  92 W9        30.15R WCI  22
WRIGHTSTOWN    PTCLDY    31  26  82 W8        30.12R WCI  23
TOMS RIVER     PTCLDY    28  27  93 CALM      30.13R
BELMAR         FAIR      30  21  69 W9        30.11R WCI  22
$$

PAZ047>061-062-071-281200-
EASTERN PENNSYLVANIA

CITY           SKY/WX    TMP DP  RH WIND       PRES   REMARKS
PHILADELPHIA   PTCLDY    34  22  61 W9        30.17R WCI  27
ALLENTOWN      PTCLDY    26  21  81 CALM      30.13R
SCRANTON       LGT SNOW  28  23  81 NW8       30.12R WCI  20
$$

CTZ002-004>006-009-010-012-RIZ004-006-007-MAZ004-011-015-281200-
SOUTHERN NEW ENGLAND
 IN CT

CITY           SKY/WX    TMP DP  RH WIND       PRES   REMARKS
BRADLEY INTL   CLOUDY    31  24  75 NW7       30.04R WCI  24
HARTFORD       CLOUDY    31  23  72 VRB6      30.07R WCI  25
DANBURY        CLEAR     26  20  77 NW5       30.08R WCI  20
WTRBRY/OXFORD  CLEAR     25  18  74 NW5       30.06R WCI  19
BRIDGEPORT     FAIR      29  25  85 NW6       30.08R WCI  23
MERIDEN        CLEAR     29  22  75 NW6       30.07R WCI  23
NEW HAVEN      CLEAR     33  24  69 NW9       30.07R WCI  25
CHESTER        FAIR      30  27  86 NW8       30.04R WCI  23
GROTON         FLURRIES  30  26  85 NW12      30.03R WCI  20
WILLIMANTIC    MOCLDY    30  24  78 NW7       30.04R WCI  23

 IN RI

CITY           SKY/WX    TMP DP  RH WIND       PRES   REMARKS
PROVIDENCE     CLOUDY    31  25  78 NW14      30.01R WCI  21
BLOCK ISLAND   CLOUDY    34  25  69 N12       30.00R WCI  25
WESTERLY       CLOUDY    31  26  82 NW9       30.02R WCI  23

 IN MA

CITY           SKY/WX    TMP DP  RH WIND       PRES   REMARKS
BOSTON         FLURRIES  30  27  88 NW12      30.01R WCI  20
WORCESTER      CLOUDY    25  22  88 NW8       29.98R WCI  16
WESTFIELD      CLOUDY    29  25  85 CALM      30.04R
PROVINCETOWN   CLOUDY    37  32  81 N16       29.94R WCI  28
NANTUCKET      CLOUDY    37  33  85 NW12      29.93R WCI  29
$$

ANZ330-335-338-340-345-350-353-355-281200-
COASTAL MARINE OBSERVATIONS


STATION/POSITION TIME  SKY/WX   TEMP    WIND        PRES    VSBY  WAVE
                                AIR SEA DIR/SP/G                  HT/PER
                 (UTC)          (F)     (DEG/KT/KT) (MB)    (MI)  (FT/S)
NY HARB ENTRANCE 1100            37 54  300/ 17/ 21 1019.4          3/ 4
4S FIRE IS       1100               52                N/A           3/ 9
20S FIRE ISLAND  1100            38 53  320/ 23/ 29 1018.0          5/ 5
23SW MTP         1100                                 N/A           4/ 4
HUDSON CANYON    1100            40 58  320/ 23/ 29 1017.3          8/ 6
EXECUTION ROCKS  1100            34 47  310/ 12/ 17   N/A
WESTERN LI SOUND 1100            34     300/ 12/ 16   N/A           1
CENTRAL LI SOUND 1000            35 50  310/ 19/ 25   N/A           2/ 3
EASTERN LI SOUND 1000            35 52  320/ 14/ 19   N/A
ROBBINS REEF     1100            31     310/ 10/ 12 1018.3
$$


>>>>>>>>>>>>>>>>>>>>>>>>>>>> KEY <<<<<<<<<<<<<<<<<<<<<<<<<<<
>                                                          <
>     SKY/WX - SKY CONDITION/PRESENT WEATHER               <
>     TMP    - TEMPERATURE IN FAHRENHEIT                   <
>     DP     - DEWPOINT IN FAHRENHEIT                      <
>     RH     - RELATIVE HUMIDITY IN PERCENT                <
>     WIND   - DIRECTION AND SPEED IN MPH                  <
>     PRES   - MEAN SEA LEVEL PRESSURE IN INCHES OF HG     <
>     WCI    - WIND CHILL INDEX                            <
>     VSB    - VISIBILITY IN MILES                         <
>     HX     - HEAT INDEX                                  <
>     TC     - TEMPERATURE IN CELSIUS                      <
>     VRB    - VARIABLE WIND DIRECTION                     <
>                                                          <
>>>>>>>>>>>>>>>>>>>>>>>>>>>> KEY <<<<<<<<<<<<<<<<<<<<<<<<<<<




USA.gov is the U.S. government's official web portal to all federal, state and local government web resources and services.